When you browse on this site, cookies collect data to enhance your experience and personalize the content and advertising you see.
Visit our Privacy Policy to learn more. By continuing to use the site, you agree to this use of cookies and data.
  • în România
  • Lista ţărilor
  • Pe 7 zile
  • Temperatura apei
  • Meteo pe hartă
  • Widget-uri
  • user-avatar
    Intrare

    Meteo pe oră la Porto Alegre

    Astăzi, 12 Decembrie, Joi

    Timp Temperatura Precipitaţii Vânt Presiune Umiditate
    00:00 +26°C° 0 mm 1 m/s 751 mmHg 72%
    01:00 +26°C° 0 mm 1 m/s 751 mmHg 72%
    02:00 +25°C° 0 mm 1 m/s 751 mmHg 72%
    03:00 +25°C° 0 mm 1 m/s 750 mmHg 71%
    04:00 +25°C° 0 mm 1 m/s 750 mmHg 69%
    05:00 +26°C° 0 mm 1 m/s 751 mmHg 67%
    06:00 +26°C° 0 mm 1 m/s 751 mmHg 65%
    07:00 +28°C° 0 mm 2 m/s 751 mmHg 60%
    08:00 +29°C° 0 mm 3 m/s 751 mmHg 55%
    09:00 +31°C° 0 mm 3 m/s 751 mmHg 50%
    10:00 +34°C° 0 mm 4 m/s 752 mmHg 45%
    11:00 +35°C° 0 mm 5 m/s 752 mmHg 39%
    12:00 +37°C° 0 mm 5 m/s 752 mmHg 34%
    13:00 +36°C° 0 mm 4 m/s 751 mmHg 35%
    14:00 +36°C° 0 mm 4 m/s 751 mmHg 36%
    15:00 +36°C° 0 mm 3 m/s 751 mmHg 36%
    16:00 +36°C° 0 mm 3 m/s 751 mmHg 36%
    17:00 +36°C° 0 mm 3 m/s 751 mmHg 36%
    18:00 +35°C° 0 mm 3 m/s 751 mmHg 35%
    19:00 +33°C° 0.1 mm 4 m/s 752 mmHg 43%
    20:00 +29°C° 0.1 mm 5 m/s 753 mmHg 51%
    21:00 +27°C° 0.1 mm 6 m/s 754 mmHg 59%
    22:00 +24°C° 0 mm 6 m/s 755 mmHg 62%
    23:00 +23°C° 0 mm 5 m/s 756 mmHg 64%

    Mâine, 13 Decembrie, Vineri

    Timp Temperatura Precipitaţii Vânt Presiune Umiditate
    00:00 +22°C° 0 mm 4 m/s 756 mmHg 67%
    01:00 +21°C° 0 mm 4 m/s 757 mmHg 67%
    02:00 +21°C° 0 mm 3 m/s 757 mmHg 67%
    03:00 +20°C° 0 mm 3 m/s 757 mmHg 67%
    04:00 +20°C° 0 mm 3 m/s 758 mmHg 66%
    05:00 +20°C° 0 mm 3 m/s 758 mmHg 65%
    06:00 +20°C° 0 mm 3 m/s 759 mmHg 64%
    07:00 +21°C° 0 mm 3 m/s 759 mmHg 58%
    08:00 +22°C° 0 mm 3 m/s 760 mmHg 53%
    09:00 +25°C° 0 mm 3 m/s 760 mmHg 47%
    10:00 +26°C° 0 mm 3 m/s 760 mmHg 44%
    11:00 +27°C° 0 mm 4 m/s 759 mmHg 40%
    12:00 +27°C° 0 mm 4 m/s 759 mmHg 37%
    13:00 +28°C° 0 mm 4 m/s 759 mmHg 36%
    14:00 +28°C° 0 mm 4 m/s 758 mmHg 35%
    15:00 +28°C° 0 mm 5 m/s 758 mmHg 34%
    16:00 +27°C° 0 mm 5 m/s 758 mmHg 37%
    17:00 +26°C° 0 mm 5 m/s 758 mmHg 41%
    18:00 +25°C° 0 mm 5 m/s 758 mmHg 44%
    19:00 +23°C° 0 mm 5 m/s 758 mmHg 47%
    20:00 +22°C° 0 mm 5 m/s 758 mmHg 50%
    21:00 +20°C° 0 mm 5 m/s 759 mmHg 53%
    22:00 +20°C° 0 mm 5 m/s 759 mmHg 55%
    23:00 +20°C° 0 mm 4 m/s 759 mmHg 58%

    Poimâine, 14 Decembrie, Sâmbătă

    Timp Temperatura Precipitaţii Vânt Presiune Umiditate
    00:00 +20°C° 0 mm 4 m/s 759 mmHg 61%
    01:00 +19°C° 0 mm 3 m/s 759 mmHg 63%
    02:00 +19°C° 0 mm 3 m/s 759 mmHg 65%
    03:00 +19°C° 0 mm 2 m/s 758 mmHg 67%
    04:00 +19°C° 0 mm 2 m/s 758 mmHg 67%
    05:00 +19°C° 0 mm 2 m/s 758 mmHg 66%
    06:00 +19°C° 0 mm 2 m/s 758 mmHg 66%
    07:00 +22°C° 0 mm 1 m/s 758 mmHg 62%
    08:00 +24°C° 0 mm 1 m/s 759 mmHg 57%
    09:00 +26°C° 0 mm 1 m/s 759 mmHg 53%
    10:00 +26°C° 0.1 mm 1 m/s 759 mmHg 54%
    11:00 +26°C° 0.1 mm 1 m/s 759 mmHg 54%
    12:00 +27°C° 0.1 mm 1 m/s 759 mmHg 55%
    13:00 +27°C° 0.5 mm 1 m/s 758 mmHg 60%
    14:00 +26°C° 0.5 mm 1 m/s 758 mmHg 65%
    15:00 +26°C° 0.5 mm 1 m/s 758 mmHg 70%
    16:00 +26°C° 0 mm 1 m/s 758 mmHg 71%
    17:00 +26°C° 0 mm 1 m/s 757 mmHg 72%
    18:00 +26°C° 0 mm 1 m/s 757 mmHg 73%
    19:00 +25°C° 0.1 mm 2 m/s 757 mmHg 75%
    20:00 +25°C° 0.1 mm 2 m/s 757 mmHg 77%
    21:00 +24°C° 0.1 mm 3 m/s 757 mmHg 79%
    22:00 +24°C° 0 mm 2 m/s 757 mmHg 80%
    23:00 +24°C° 0 mm 2 m/s 756 mmHg 81%

    15 Decembrie, Duminică

    Timp Temperatura Precipitaţii Vânt Presiune Umiditate
    00:00 +24°C° 0 mm 1 m/s 756 mmHg 82%
    01:00 +24°C° 0.3 mm 1 m/s 755 mmHg 84%
    02:00 +23°C° 0.3 mm 1 m/s 755 mmHg 85%
    03:00 +23°C° 0.3 mm 1 m/s 754 mmHg 87%
    04:00 +23°C° 0.2 mm 1 m/s 754 mmHg 87%
    05:00 +23°C° 0.2 mm 1 m/s 754 mmHg 86%
    06:00 +23°C° 0.2 mm 1 m/s 754 mmHg 86%
    07:00 +24°C° 0.7 mm 1 m/s 754 mmHg 82%
    08:00 +26°C° 0.7 mm 1 m/s 754 mmHg 79%
    09:00 +27°C° 0.7 mm 1 m/s 754 mmHg 75%
    10:00 +29°C° 0.6 mm 2 m/s 753 mmHg 69%
    11:00 +30°C° 0.6 mm 2 m/s 752 mmHg 62%
    12:00 +32°C° 0.6 mm 2 m/s 752 mmHg 56%
    13:00 +34°C° 0.2 mm 2 m/s 751 mmHg 56%
    14:00 +34°C° 0.2 mm 2 m/s 749 mmHg 55%
    15:00 +35°C° 0.2 mm 3 m/s 748 mmHg 54%
    16:00 +30°C° 5.7 mm 4 m/s 748 mmHg 65%
    17:00 +27°C° 5.7 mm 5 m/s 748 mmHg 76%
    18:00 +23°C° 5.7 mm 7 m/s 749 mmHg 87%
    19:00 +23°C° 0.9 mm 5 m/s 749 mmHg 85%
    20:00 +23°C° 0.9 mm 4 m/s 749 mmHg 83%
    21:00 +24°C° 0.9 mm 3 m/s 750 mmHg 80%
    22:00 +24°C° 0 mm 3 m/s 750 mmHg 80%
    23:00 +23°C° 0 mm 4 m/s 750 mmHg 79%

    16 Decembrie, Luni

    Timp Temperatura Precipitaţii Vânt Presiune Umiditate
    00:00 +23°C° 0 mm 4 m/s 749 mmHg 79%
    01:00 +23°C° 0 mm 4 m/s 749 mmHg 79%
    02:00 +23°C° 0 mm 4 m/s 749 mmHg 79%
    03:00 +23°C° 0 mm 4 m/s 749 mmHg 79%
    04:00 +23°C° 0 mm 4 m/s 749 mmHg 80%
    05:00 +23°C° 0 mm 4 m/s 750 mmHg 81%
    06:00 +22°C° 0 mm 4 m/s 750 mmHg 82%
    07:00 +23°C° 0.4 mm 4 m/s 751 mmHg 81%
    08:00 +23°C° 0.4 mm 4 m/s 751 mmHg 79%
    09:00 +23°C° 0.4 mm 4 m/s 752 mmHg 78%
    10:00 +25°C° 0.1 mm 3 m/s 752 mmHg 72%
    11:00 +26°C° 0.1 mm 3 m/s 752 mmHg 67%
    12:00 +26°C° 0.1 mm 3 m/s 752 mmHg 62%
    13:00 +27°C° 0 mm 3 m/s 752 mmHg 60%
    14:00 +27°C° 0 mm 3 m/s 752 mmHg 59%
    15:00 +27°C° 0 mm 4 m/s 752 mmHg 58%
    16:00 +26°C° 0 mm 4 m/s 752 mmHg 59%
    17:00 +26°C° 0 mm 4 m/s 752 mmHg 61%
    18:00 +25°C° 0 mm 4 m/s 753 mmHg 63%
    19:00 +25°C° 0 mm 4 m/s 753 mmHg 66%
    20:00 +23°C° 0 mm 4 m/s 754 mmHg 69%
    21:00 +22°C° 0 mm 4 m/s 754 mmHg 72%
    22:00 +21°C° 0 mm 3 m/s 755 mmHg 74%
    23:00 +21°C° 0 mm 3 m/s 755 mmHg 75%

    17 Decembrie, Marţi

    Timp Temperatura Precipitaţii Vânt Presiune Umiditate
    00:00 +20°C° 0 mm 2 m/s 755 mmHg 77%
    01:00 +20°C° 0 mm 2 m/s 755 mmHg 79%
    02:00 +20°C° 0 mm 2 m/s 755 mmHg 80%
    03:00 +21°C° 0 mm 1 m/s 755 mmHg 81%
    04:00 +21°C° 0 mm 1 m/s 755 mmHg 82%
    05:00 +20°C° 0 mm 1 m/s 755 mmHg 82%
    06:00 +20°C° 0 mm 1 m/s 755 mmHg 82%
    07:00 +21°C° 0 mm 2 m/s 755 mmHg 75%
    08:00 +24°C° 0 mm 2 m/s 756 mmHg 68%
    09:00 +25°C° 0 mm 2 m/s 756 mmHg 61%
    10:00 +26°C° 0 mm 3 m/s 756 mmHg 55%
    11:00 +27°C° 0 mm 3 m/s 755 mmHg 50%
    12:00 +28°C° 0 mm 4 m/s 755 mmHg 45%
    13:00 +28°C° 0 mm 4 m/s 755 mmHg 45%
    14:00 +29°C° 0 mm 5 m/s 755 mmHg 44%
    15:00 +29°C° 0 mm 6 m/s 755 mmHg 44%
    16:00 +28°C° 0 mm 6 m/s 755 mmHg 47%
    17:00 +27°C° 0 mm 5 m/s 755 mmHg 51%
    18:00 +26°C° 0 mm 5 m/s 755 mmHg 54%
    19:00 +25°C° 0 mm 5 m/s 756 mmHg 59%
    20:00 +23°C° 0 mm 5 m/s 756 mmHg 63%
    21:00 +21°C° 0 mm 4 m/s 757 mmHg 68%
    22:00 +21°C° 0 mm 4 m/s 757 mmHg 69%
    23:00 +21°C° 0 mm 4 m/s 757 mmHg 70%
    Arată mai mult